Regional Weather Roundup
Issued by NWS New Orleans/Baton Rouge, LA

Home | Current Version | Previous Version | Text Only | Print | Product List | Glossary On
Versions: 1 2 3 4 5 6 7 8 9 10 11 12 13 14 15 16 17 18 19 20 21 22 23 24 25 26 27 28
000
ASUS44 KLIX 291911
RWRLIX
NEW ORLEANS REGIONAL WEATHER ROUNDUP
NATIONAL WEATHER SERVICE NEW ORLEANS LA
200 PM CDT FRI JUL 29 2016

NOTE: "FAIR" INDICATES FEW OR NO CLOUDS BELOW 12,000 FEET WITH NO
      SIGNIFICANT WEATHER AND/OR OBSTRUCTIONS TO VISIBILITY.
      SKY/WX - SKY CONDITION AND SIGNIFICANT WEATHER.
      TMP - AIR TEMPERATURE.     DP    - DEWPOINT TEMPERATURE.
      RH  - RELATIVE HUMIDITY.   PRES  - PRESSURE.
      HI  - HEAT INDEX.          WCI   - WIND CHILL INDEX.

*  THESE STATIONS ARE NOT NWS OR FAA STATIONS AND ARE NOT UNDER
   NWS QUALITY CONTROL.

LAZ038-040-048-061>063-065>067-069-292000-
SOUTHEAST LOUISIANA

CITY           SKY/WX    TMP DP  RH WIND       PRES   REMARKS
N.O. AUDUBON   NOT AVBL
N.O. INTL ARPT MOSUNNY   92  76  59 E8        30.02F HX 104
N.O. LAKEFRONT PTSUNNY   86  74  67 CALM      30.03F
N.O. DOWNTOWN*   N/A     88  74  63 N5        30.04S HX  96
RESERVE*       MOCLDY    91  76  61 N6        30.01F HX 104
SLIDELL        SUNNY     92  73  53 CALM      30.01F HX 100
BATON ROUGE    PTSUNNY   91  72  53 W5        30.02F HX  98
BOOTHVILLE     PTSUNNY   88  73  61 N5        30.04F HX  95
BELLE CHASSE   PTSUNNY   84  70  62 NE13      30.03F THUNDER
BOGALUSA*        N/A     92  71  50 NW5       30.04F HX  99
GALLIANO*      CLOUDY    88  74  63 NE6       30.03F HX  97
NEW ROADS*     CLOUDY    85  74  71 NW14G20   30.03S
GONZALES*        N/A     91  73  55 SW5       30.01F HX  98
HAMMOND*       SUNNY     93  68  43 NW6       30.02F HX  97
HOUMA*         NOT AVBL
PORT FOURCHON* CLEAR     88  73  62 W7        30.04S HX  96

$$

MSZ070-080>082-292000-
SOUTHERN MISSISSIPPI

CITY           SKY/WX    TMP DP  RH WIND       PRES   REMARKS
MCCOMB         TSTM      77  72  84 NW24G33   30.07R
GULFPORT       HVY RAIN  77  73  87 S20G28    30.02F VSB 1/4
BILOXI         SUNNY     91  74  56 SW10      30.01F HX 100
PASCAGOULA     SUNNY     90  78  68 S7        30.02F HX 104
STENNIS ARPT*  MOSUNNY   88  73  62 S6        30.02F HX  96

$$

COASTAL OBSERVATIONS
LAKE AND NEARSHORE STATIONS

STATION/POSITION TIME  TEMP    WIND        PRES    WAVE
                       AIR SEA DIR/SP/G            HT/PER
                 (UTC) (F)     (DEG/KT/KT) (MB)    (FT/S)
PASCAGOULA       1800   90     230/  6/  9 1017.1
WAVELAND YACHT   1800   82 86  200/  4/  6 1017.3
GRAND ISLE       1800   86 87  160/  3/  4 1017.7
SOUTHWEST PASS   1800          190/  2/  4   N/A
NEW CANAL        1800   83 87  230/  6/ 10 1017.2
SHELL BEACH      1800   86 89  360/  4/  6 1017.6

OFFSHORE STATIONS

STATION/POSITION TIME  TEMP    WIND        PRES    WAVE
                       AIR SEA DIR/SP/G            HT/PER
                 (UTC) (F)     (DEG/KT/KT) (MB)    (FT/S)
64 S DAUPHIN ISL 1800   86 87  230/  6/ 10 1017.5

$$





USA.gov is the U.S. government's official web portal to all federal, state and local government web resources and services.